Regional Weather Roundup
Issued by NWS Wakefield, VA

Home | Current Version | Previous Version | Graphics & Text | Print | Product List | Glossary On
Versions: 1 2 3 4 5 6 7 8 9 10 11 12 13 14 15 16 17 18 19 20 21 22 23 24 25 26 27 28 29 30 31 32 33 34 35 36 37 38 39 40 41 42 43 44 45 46 47 48 49 50
000
ASUS41 KAKQ 210210
RWRAKQ

REGIONAL WEATHER ROUNDUP
NATIONAL WEATHER SERVICE WAKEFIELD VA
900 PM EST SAT DEC 20 2014

Note: "fair" indicates few or no clouds below 12,000 feet with no
significant weather and/or obstructions to visibility. * = Denotes
station may not report precipitation (e.g., rain,snow,etc.),
thunder or fog.

VAZ042-051-052>054-056-210300-
NORTHERN VIRGINIA

CITY           SKY/WX    TMP DP  RH WIND       PRES   REMARKS
WASH NATIONAL  CLOUDY    38  21  50 NW3       30.31S
DULLES         CLOUDY    30  24  78 CALM      30.30R
FORT BELVOIR   CLOUDY    33  24  71 CALM      30.31R
QUANTICO       MOCLDY    33  25  72 NW5       30.32S
FREDERICKSBRG* CLOUDY    35  26  68 CALM      30.30S
STAFFORD*      CLOUDY    32  25  76 CALM      30.35R
WARRENTON      CLOUDY    32  31  96 CALM      30.29S
CULPEPER*      CLOUDY    34  28  80 CALM      30.30S
MANASSAS*      CLOUDY    30  28  93 CALM      30.30S
LEESBURG*      CLOUDY    32  28  86 W3        30.30R
WINCHESTER     CLOUDY    32  21  64 CALM      30.27R
FRONT ROYAL*   CLOUDY    32  23  69 CALM      30.26R
LURAY*         CLOUDY    34  28  80 E3        30.25S
$$

VAZ048-049-060>072-079>083-210300-
CENTRAL AND SOUTH CENTRAL VIRGINIA

CITY           SKY/WX    TMP DP  RH WIND       PRES   REMARKS
RICHMOND       CLOUDY    37  22  54 NE3       30.29S
CHESTERFIELD*  CLOUDY    36  16  44 E3        30.30S
PETERSBURG*    CLOUDY    34  29  80 CALM      30.30S
HANOVER        CLOUDY    34  25  69 CALM      30.31S
TAPPAHANNOCK*  CLOUDY    33  26  75 CALM      30.31S
QUINTON*       CLOUDY    35  24  64 CALM      30.30S
CHARLOTTSVILLE CLOUDY    33  25  72 CALM      30.27S
GORDONSVILLE*  CLOUDY    32  27  82 CALM      30.28S
ORANGE*        CLOUDY    34  30  86 CALM      30.30S
LOUISA*        CLOUDY    34  27  75 CALM      30.27S
BUMPASS*       CLOUDY    33  25  73 CALM      30.29S
FARMVILLE*     CLOUDY    37  27  66 CALM      30.27S
CREWE*         CLOUDY    35  28  78 CALM      30.27S
FORT PICKETT*  CLOUDY    34  26  71 CALM      30.28S
CHASE CITY*    CLOUDY    37  36  95 CALM      30.28R
CLARKSVILLE*   CLOUDY    34  32  93 CALM      30.27S
SOUTH HILL*    MOCLDY    33  30  90 CALM      30.34R
LAWRENCEVILLE* CLOUDY    35  29  79 CALM      30.28S
EMPORIA*       CLOUDY    34  32  93 CALM      30.31S
$$

VAZ088>098-210300-
SOUTHEAST VIRGINIA

CITY           SKY/WX    TMP DP  RH WIND       PRES   REMARKS
NORFOLK        MOCLDY    34  30  85 CALM      30.30R
VIRGINIA BEACH PTCLDY    32  27  81 CALM      30.29S
NORFOLK NAVAL  MOCLDY    37  29  72 CALM      30.31S
WEST POINT*    CLOUDY    36  27  70 CALM      30.33R
SALUDA*        CLOUDY    31  26  83 CALM      30.30S
NEWPORT NEWS   CLOUDY    36  30  79 CALM      30.30R
LANGLEY AFB    CLOUDY    33  29  86 W1        30.31R
FORT EUSTIS    CLOUDY    36  29  75 CALM      30.29R
WILLIAMSBURG*  CLOUDY    37  30  75 CALM      30.31S
HR EXEC AP*    MOCLDY    28  25  86 CALM      30.32S
FRANKLIN*      CLEAR     28  28 100 CALM      30.30S
WAKEFIELD      CLOUDY    35  29  78 CALM      30.30S
$$

VAZ020-022-025-037-045-210300-
WEST CENTRAL AND SOUTHWEST VIRGINIA

CITY           SKY/WX    TMP DP  RH WIND       PRES   REMARKS
STAUNTON*      CLOUDY    33  26  75 CALM      30.25S
WAYNESBORO*    CLOUDY    33  24  71 CALM      30.22S
HOT SPRINGS VA CLOUDY    30  30 100 W9        30.10S
LYNCHBURG      CLOUDY    32  27  81 CALM      30.26S
DANVILLE       CLOUDY    38  31  76 CALM      30.28R
SOUTH BOSTON*  CLOUDY    36  30  81 CALM      30.28R
MARTINSVILLE   CLOUDY    38  32  78 CALM      30.28S
ROANOKE        CLOUDY    36  25  64 SE5       30.26R
BLACKSBURG     DRIZZLE   35  29  80 CALM      30.23R
DUBLIN*        CLOUDY    37  33  85 CALM      30.21S
MARION*        LGT RAIN  37  36  95 CALM      30.21S
HILLSVILLE*    CLOUDY    34  31  88 CALM      30.17S
RICHLANDS*     CLOUDY    34  31  91 CALM      30.19R
WISE*          CLOUDY    34  30  86 CALM      30.20R
ABINGDON*      CLOUDY    40  39  97 CALM      30.20S FOG
$$

MDZ021>025-VAZ099-100-210300-
SOUTHERN MARYLAND AND THE DELMARVA PENINSULA

CITY           SKY/WX    TMP DP  RH WIND       PRES   REMARKS
PATUXENT RIVER CLOUDY    33  23  66 CALM      30.30S
BAY BRIDGE APT   N/A     34  27  75 CALM      30.30S
LEONARDTOWN    MOCLDY    32  25  74 CALM      30.32R
DOVER          CLOUDY    29  24  82 CALM      30.27F
GEORGETOWN     CLEAR     29  24  82 CALM      30.30S
EASTON         NOT AVBL
CAMBRIDGE      PTCLDY    34  30  86 CALM      30.30S
SALISBURY      CLOUDY    34  25  69 CALM      30.30S
OCEAN CITY     FAIR      28  25  88 NW3       30.30S
WALLOPS ISLAND CLEAR     29  25  85 NW5       30.31R
ACCOMACK*      CLEAR     28  25  86 CALM      30.30R
$$

NCZ012>017-030>032-210300-
NORTH CENTRAL AND EASTERN NORTH CAROLINA

CITY           SKY/WX    TMP DP  RH WIND       PRES   REMARKS
ROANOKE RAPIDS CLOUDY    34  32  93 CALM      30.29S
RALEIGH        CLOUDY    38  34  85 CALM      30.28S FOG
ELIZABETH CITY CLEAR     40  30  67 CALM      30.30S
AHOSKIE*       CLOUDY    34  31  89 CALM      30.30S
EDENTON*         N/A     38  34  85 CALM      30.30S
CURRITUCK*     PTCLDY    39  30  71 CALM      30.30S
KILL DEVIL HLS CLOUDY    42  33  71 N3        30.27R
MANTEO         MOCLDY    41  34  75 N3        30.29R
CAPE HATTERAS  CLOUDY    43  37  79 NE7       30.27F
TARBORO*       CLOUDY    37  36  93 CALM      30.30F
GOLDSBORO      CLOUDY    40  39  98 CALM      30.27F
WASHINGTON     CLOUDY    39  36  87 CALM      30.29F
GREENVILLE     CLOUDY    39  36  87 CALM      30.30S
NEW BERN       CLOUDY    41  36  82 N3        30.29S
WILMINGTON     MOCLDY    39  38  96 NE8       30.26S FOG
$$

VAZ048-210300-
ELSEWHERE

CITY           SKY/WX    TMP DP  RH WIND       PRES   REMARKS
HARRISBURG PA  PTCLDY    26  20  77 CALM      30.28S
BALTIMORE      CLOUDY    33  24  69 CALM      30.29R
ANNAPOLIS      MOCLDY    36  23  59 CALM      30.30S
ANDREWS AFB    CLOUDY    35  22  59 W3        30.29R
PHILADELPHIA   CLOUDY    35  21  56 NW6       30.31S
HENDERSON NC   CLEAR     33  31  94 CALM      30.28R
GREENSBORO     CLOUDY    37  33  85 SE3       30.25R
ROCKY MOUNT    CLOUDY    39  35  86 CALM      30.29S
$$

VAZ100-210300-
MARINE

STATION/POSITION TIME  TEMP    WIND        PRES    WAVE   SWELL
                       AIR SEA DIR/SP/G            HT/PER HT/PER
                 (UTC) (F)     (DEG/KT/KT) (MB)    (FT/S) (FT/S)
CAPE MAY NJ      0200   31 43   50/  2/  2 1025.7R
LEWES DE         0200   33 41   CALM  /  2 1025.6F
15NM E FENWICK I 0200   36 45              1025.3F   1/ 4
OCEAN-CITY-INLET 0200   35 44  330/  5/  6 1025.4S
WACHAPREAGUE VA  0200   30 41   CALM  /  1 1026.0R
THOMAS POINT MD  0200   36 40  100/  1/  2 1027.2R
GOOSES REEF MD   0200   36     VRB  4/  6  1025.1S
COVE POINT MD    0200   34     320/  2/  4 1026.0R
SOLOMONS ISLAND  0200      43                N/A
BISHOPS HEAD MD  0200   35 37  350/  2/  3 1025.6R
POTOMAC MD       0200   37     300/  6/  8 1025.2S
CAMBRIDGE MD     0200   35 40  220/  2/  3 1025.8S
LEWISETTA VA     0200   35 41  300/  3/  3 1025.9F
RAPPAHANNOCK LGT 0200          350/  4/  5 1026.5R
STINGRAY PT      0200   37     350/  6/  6 1026.6R
YORK RVR RNG VA  0200   38      30/  4/  5 1025.5R
YORKTOWN VA      0200   38 45   20/  6/  6 1025.8S
JAMESTOWN VA     0200   36      70/  2/  4   N/A
DOMINION TERM VA 0200   38      40/  1/  3 1026.0R
KIPTOPEKE VA     0200      49   60/  4/  5   N/A
CHES BAY BRIDGE  0200   39 46   10/  5/  6 1025.5R
CAPE HENRY VA    0200   38      20/  5/  7 1024.6R
CHESAPEAKE LGHT  0100   39     350/  7/  8 1026.4R
WILLOUBY STN VA  0200   38      10/  5/  5 1026.3R
S CRANEY ISL VA  0200           50/  3/  4 1025.9R
CAPE HENRY BUOY  0200      50                N/A     2/ 5
1ST LANDING BUOY 0200   39      20/  6/  8 1025.3R
CAPE CHARLES BUO 0200      47                N/A     1/11   2/11
64NM E OF VA BCH 0200   43 54  360/ 10/ 12 1024.9R   2/ 5   2/ 5
DUCK PIER NC     0200   42 46   10/  8/ 10 1024.5S
44100 DUCK FRF   0200      52                N/A     2/ 6
44056 DUCK FRF   0200      46                N/A     2/ 6
OREGON INLET NC  0200   43 48   20/  7/ 10 1025.1S
HATTERAS NC      0200   45 51   10/ 12/ 14 1025.3S
DIAMOND SHLS NC  0200   48                 1024.9S   3/ 5
CAPE LOOKOUT NC  0100   44      10/ 11/ 13 1024.5F
$$


USA.gov is the U.S. government's official web portal to all federal, state and local government web resources and services.